Crossville, TN

9:42 AM CST on January 19, 2017 (GMT -0600)
Crossville Memorial-Whitson

Weather History for KCSV - April, 2014

Change the Weather History Date:

Saturday, April 12, 2014

  Actual Average Record
Temperature  
Mean Temperature 62 °F 55 °F  
Max Temperature 75 °F 66 °F 81 °F (1977)
Min Temperature 49 °F 44 °F 26 °F (1989)
Degree Days  
Heating Degree Days 3    
Month to date heating degree days 96  
Since 1 July heating degree days 4273  
Cooling Degree Days 0    
Month to date cooling degree days 3  
Year to date cooling degree days 3  
Growing Degree Days 10 (Base 50)    
Moisture  
Dew Point 49 °F    
Average Humidity 67    
Maximum Humidity 96    
Minimum Humidity 38    
Precipitation  
Precipitation 0.00 in 0.15 in 1.60 in (1979)
Month to date precipitation 2.37 1.95  
Year to date precipitation 11.02 16.15  
Sea Level Pressure  
Sea Level Pressure 30.13 in    
Wind  
Wind Speed 5 mph (South)    
Max Wind Speed 15 mph    
Max Gust Speed 23 mph    
Visibility 8 miles    
Events Fog    
T = Trace of Precipitation, MM = Missing Value Source: NWS Daily Summary

Daily Weather History Graph

Daily Weather History Graph

Search for Another Location

Airport or City:

Trip Planner

Search our weather history database for the weather conditions in past years. The results will help you decide how hot, cold, wet, or windy it might be!

Date:

Astronomy

Apr. 12, 2014 Rise Set
Actual Time 6:11 AM CDT 7:11 PM CDT
Civil Twilight 5:45 AM CDT 7:37 PM CDT
Nautical Twilight 5:13 AM CDT 8:08 PM CDT
Astronomical Twilight 4:41 AM CDT 8:41 PM CDT
Moon 4:53 PM CDT (4/12) 4:32 AM CDT (4/12)
Length of Visible Light 13h 52m
Length of Day
13h 00m
Waxing Gibbous, 93% of the Moon is Illuminated
Apr 12
Waxing Gibbous
Apr 15
Full
Apr 22
Last Quarter
Apr 29
New
May 6
First Quarter

Hourly Weather History & Observations

Time (CDT) Temp. Dew Point Humidity Pressure Visibility Wind Dir Wind Speed Gust Speed Precip Events Conditions
12:53 AM 55.0 °F 51.1 °F 86% 30.13 in 10.0 mi Variable 4.6 mph - N/A   Clear
1:53 AM 53.1 °F 50.0 °F 89% 30.12 in 10.0 mi Variable 3.5 mph - N/A   Clear
2:53 AM 53.1 °F 50.0 °F 89% 30.13 in 10.0 mi Calm Calm - N/A   Clear
3:53 AM 52.0 °F 48.9 °F 89% 30.14 in 5.0 mi Calm Calm - N/A   Clear
4:53 AM 52.0 °F 48.9 °F 89% 30.14 in 9.0 mi Calm Calm - N/A   Clear
5:53 AM 50.0 °F 48.0 °F 93% 30.17 in 4.0 mi Calm Calm - N/A   Clear
6:07 AM 50.0 °F 48.0 °F 93% 30.20 in 1.8 mi Calm Calm - N/A   Clear
6:12 AM 48.9 °F 46.9 °F 93% 30.20 in 0.5 mi Calm Calm - N/A Fog Fog
6:20 AM 50.0 °F 48.0 °F 93% 30.20 in 0.2 mi Calm Calm - N/A Fog Fog
6:25 AM 50.0 °F 48.0 °F 93% 30.20 in 0.8 mi Calm Calm - N/A   Clear
6:29 AM 50.0 °F 48.0 °F 93% 30.20 in 2.0 mi Calm Calm - N/A   Clear
6:48 AM 51.8 °F 48.2 °F 88% 30.20 in 4.0 mi Calm Calm - N/A   Clear
6:53 AM 51.1 °F 50.0 °F 96% 30.18 in 4.0 mi South 3.5 mph - N/A   Clear
7:53 AM 55.9 °F 52.0 °F 87% 30.19 in 10.0 mi South 3.5 mph - N/A   Clear
8:53 AM 62.1 °F 53.1 °F 72% 30.18 in 10.0 mi South 3.5 mph - N/A   Clear
9:53 AM 64.9 °F 50.0 °F 58% 30.19 in 10.0 mi Variable 3.5 mph - N/A   Clear
10:53 AM 68.0 °F 50.0 °F 52% 30.19 in 10.0 mi Variable 5.8 mph - N/A   Scattered Clouds
11:53 AM 69.1 °F 48.0 °F 47% 30.16 in 10.0 mi Variable 4.6 mph - N/A   Partly Cloudy
12:53 PM 72.0 °F 48.9 °F 44% 30.12 in 10.0 mi Variable 6.9 mph - N/A   Partly Cloudy
1:53 PM 72.0 °F 51.1 °F 48% 30.11 in 10.0 mi SSE 9.2 mph 20.7 mph N/A   Partly Cloudy
2:53 PM 73.9 °F 46.9 °F 38% 30.07 in 10.0 mi South 11.5 mph 18.4 mph N/A   Clear
3:53 PM 73.9 °F 46.9 °F 38% 30.05 in 10.0 mi South 9.2 mph 18.4 mph N/A   Clear
4:53 PM 73.9 °F 48.0 °F 40% 30.04 in 10.0 mi South 13.8 mph 19.6 mph N/A   Clear
5:53 PM 73.0 °F 46.9 °F 39% 30.04 in 10.0 mi Variable 6.9 mph - N/A   Clear
6:53 PM 71.1 °F 46.9 °F 42% 30.04 in 10.0 mi South 8.1 mph - N/A   Clear
7:53 PM 69.1 °F 46.9 °F 45% 30.05 in 10.0 mi South 5.8 mph - N/A   Clear
8:53 PM 66.9 °F 48.0 °F 51% 30.05 in 10.0 mi South 3.5 mph - N/A   Clear
9:53 PM 63.0 °F 48.0 °F 58% 30.05 in 10.0 mi Calm Calm - N/A   Clear
10:53 PM 64.0 °F 48.0 °F 56% 30.04 in 10.0 mi South 4.6 mph - N/A   Clear
11:53 PM 64.9 °F 46.9 °F 52% 30.04 in 10.0 mi South 5.8 mph - N/A   Clear